Wind_Speed
36 35 35 35 35 35 33 32 32 31 30 30 29 27 26 25 27 28 29 29 28 27 26 26 25 25 24 24 23 23 23 23 23 23 23 23 24 24 25 25 26 26 27
36 35 36 37 37 37 37 36 35 34 34 34 34 32 30 29 30 31 33 33 32 31 29 27 26 26 25 24 24 24 25 25 25 25 25 26 26 26 26 26 26 27 27
33 34 35 37 39 39 40 39 39 37 37 38 39 36 34 32 32 34 34 35 35 34 32 29 27 26 25 25 25 25 26 26 25 25 26 26 27 27 27 26 26 26 27
30 31 33 36 39 41 42 42 41 40 40 40 41 40 39 38 35 35 35 35 36 36 34 31 28 26 25 25 26 26 26 26 26 26 26 26 27 28 28 27 26 26 27
31 31 32 35 38 41 44 44 43 43 43 43 44 44 46 45 41 39 37 36 36 35 34 31 29 27 25 25 26 26 26 25 25 26 26 26 27 28 29 29 28 27 26
35 34 34 35 37 41 44 46 46 45 45 45 45 47 49 48 46 43 41 40 39 37 35 32 29 26 25 25 25 26 25 25 25 26 27 27 27 28 28 29 29 28 27
36 35 35 36 38 40 43 46 46 46 46 46 47 49 50 51 49 47 45 43 41 39 36 31 27 23 23 24 24 25 25 25 25 26 26 27 27 27 27 27 28 28 26
32 32 33 34 36 38 40 43 44 44 45 46 47 48 49 48 46 44 42 39 38 36 32 26 21 19 22 24 25 25 25 25 25 25 25 26 25 25 25 26 26 26 25
27 28 29 30 31 32 34 36 39 41 42 42 45 45 44 43 41 40 37 36 32 28 21 17 16 20 23 25 26 26 26 25 25 24 24 24 24 24 24 24 24 24 24
19 20 21 22 22 23 25 29 31 34 35 35 37 39 39 35 31 28 27 25 20 15 13 15 18 22 24 25 25 25 25 24 24 23 23 22 22 22 21 21 21 22 23
10 11 12 14 15 17 18 21 23 25 26 26 25 24 23 20 17 16 14 12 10 11 14 17 19 21 22 22 22 22 22 22 22 22 21 21 20 19 20 19 19 20 20
4 3 3 3 5 7 8 10 11 11 11 11 11 10 10 8 7 6 6 6 8 11 13 15 17 18 19 19 19 19 20 20 20 21 20 20 19 18 19 19 19 19 19
5 4 5 5 4 4 5 6 6 5 5 5 4 3 3 3 3 3 4 6 8 10 12 15 16 17 18 18 18 19 19 20 20 20 20 20 19 18 19 19 20 20 20
6 6 7 6 6 6 6 6 7 6 5 4 3 2 2 0 1 3 4 6 8 10 13 15 16 17 18 18 18 19 19 20 20 21 21 21 20 20 20 20 20 20 20
6 5 5 6 5 7 7 7 7 6 5 4 3 2 1 2 3 5 7 8 11 13 15 16 17 18 18 18 19 19 20 21 21 22 22 22 22 22 21 21 21 21 20
5 5 4 4 5 7 7 8 7 7 6 6 5 5 5 5 7 8 10 12 14 16 17 18 19 20 19 19 20 20 21 22 22 22 23 24 24 23 23 23 23 23 22
5 5 6 5 7 8 8 8 8 7 6 6 6 7 8 9 10 12 13 15 16 17 19 20 20 21 21 21 21 21 21 22 23 23 24 23 24 25 25 25 25 24 24
10 10 9 9 9 9 9 9 9 9 9 9 9 10 11 12 13 15 16 17 18 19 20 21 21 21 21 21 21 21 22 23 23 24 24 24 24 24 25 25 26 26 25
12 11 11 10 10 10 10 10 10 11 11 12 12 12 13 14 14 15 17 18 19 20 21 21 22 22 22 22 22 22 23 23 24 24 23 23 23 23 24 25 25 25 26
12 12 12 12 11 12 12 12 12 12 12 12 12 12 13 13 14 15 17 18 19 19 20 21 22 22 22 22 22 23 23 24 24 24 23 24 24 23 23 24 24 24 24
13 13 13 13 13 13 13 13 13 13 13 13 13 13 13 13 14 15 16 16 17 18 18 19 19 20 20 21 22 22 23 24 24 24 24 24 24 24 23 23 22 22 22
14 14 14 14 14 15 15 15 15 15 15 15 15 15 15 15 16 16 15 15 14 15 16 16 17 18 19 20 21 21 22 23 23 24 24 24 25 25 24 24 22 21 21
15 16 16 16 17 17 17 16 16 16 16 17 17 17 17 17 17 17 16 15 15 15 15 16 16 17 17 18 19 18 19 19 20 22 23 24 24 25 25 25 23 22 20
15 16 17 17 18 18 17 17 17 17 17 18 18 19 19 19 18 18 18 17 17 17 17 16 16 16 15 14 14 14 15 15 17 18 19 20 22 23 24 24 23 22 20
15 16 16 17 18 18 18 18 18 17 17 18 18 19 19 20 20 19 19 20 19 19 18 17 16 14 12 11 11 12 11 12 12 12 12 12 14 17 19 20 20 20 18
14 14 15 16 17 17 17 18 18 17 17 17 18 18 19 20 20 20 21 21 21 21 21 19 16 13 11 10 10 10 10 10 9 8 5 2 3 8 11 14 16 16 16
Wind_Direction
261 261 261 263 265 267 269 269 270 271 271 270 269 270 271 268 266 264 259 255 251 250 252 257 260 262 263 264 265 268 272 278 282 284 282 279 276 275 273 272 271 270 269
262 261 260 259 259 260 263 264 266 269 271 271 272 273 273 273 273 269 263 257 252 250 252 256 259 261 262 262 264 268 274 278 281 283 282 279 277 277 275 273 271 270 270
262 262 262 260 257 256 257 259 261 264 268 271 272 274 275 275 275 275 269 261 255 251 251 253 255 258 259 262 266 271 277 280 282 282 280 278 278 279 278 274 273 270 269
264 265 265 263 258 254 254 254 256 261 265 268 269 271 271 271 273 273 270 265 259 254 252 252 253 255 259 264 269 274 277 280 281 280 277 275 275 276 277 274 273 272 270
269 271 271 268 262 255 251 251 252 256 260 263 266 266 266 265 267 269 269 267 263 258 252 252 254 256 261 266 271 274 276 278 279 278 276 275 274 273 272 271 270 271 274
274 277 277 273 265 257 251 249 249 252 256 258 262 263 263 265 267 267 267 264 261 258 254 250 253 254 260 266 270 274 275 276 276 275 275 274 274 273 271 269 268 270 272
276 277 277 273 266 258 252 248 248 250 253 257 260 262 264 266 267 269 268 263 258 254 249 246 247 252 259 265 269 271 271 271 271 271 272 272 273 271 270 268 267 268 269
271 273 273 270 264 258 254 250 249 251 254 258 262 264 267 271 272 269 265 257 250 246 241 238 242 253 262 266 267 269 269 269 268 268 269 270 270 269 268 267 264 264 265
263 266 268 268 265 261 257 255 252 254 258 262 267 269 273 275 273 265 255 246 238 235 233 239 252 261 265 267 268 269 268 267 266 266 267 268 268 268 268 265 262 261 260
257 262 265 268 268 266 262 259 258 259 263 268 272 271 273 268 257 246 236 230 227 229 238 251 259 263 265 267 267 268 266 266 265 264 265 266 267 266 265 263 262 260 257
247 256 266 269 267 265 263 259 258 261 265 268 270 266 259 243 224 216 217 221 229 240 250 257 260 263 265 267 269 269 268 266 264 262 263 264 263 262 262 261 259 259 255
203 242 256 243 239 251 246 239 241 243 245 245 241 224 215 208 210 217 223 232 245 251 256 260 263 266 269 271 272 271 270 267 264 263 262 261 260 258 257 257 257 256 254
137 131 120 110 113 126 142 136 140 152 163 167 172 171 176 188 217 248 255 255 257 260 266 268 271 273 274 276 276 275 273 269 266 264 263 261 260 257 255 255 254 253 253
112 101 97 92 90 84 85 86 93 98 98 98 89 105 106 161 256 266 271 269 270 274 275 275 277 278 277 277 278 276 274 271 267 265 263 262 260 258 255 254 252 252 253
95 86 74 64 55 49 46 45 45 46 41 29 16 10 332 296 286 281 277 281 283 284 283 281 280 280 278 278 278 277 276 273 270 266 263 262 260 258 256 254 253 253 252
87 67 51 32 28 25 24 23 21 12 2 352 346 336 313 297 287 283 282 283 286 286 286 284 282 280 280 278 277 277 277 276 273 269 265 262 260 258 256 255 254 253 253
69 51 46 38 26 24 21 19 16 11 2 349 334 319 306 299 293 289 287 287 288 288 287 286 285 284 282 279 278 278 276 274 272 269 266 264 260 258 256 255 253 252 252
68 60 55 48 41 34 25 16 9 1 352 341 329 318 309 303 298 295 293 292 291 290 289 288 288 287 284 282 280 278 276 273 271 269 267 264 261 259 256 254 252 251 251
62 57 53 48 42 35 26 16 6 356 347 338 330 322 314 309 305 301 298 296 294 292 291 290 290 289 287 284 281 279 277 275 273 269 267 264 262 259 255 254 252 250 249
51 48 43 40 34 27 20 14 8 2 357 350 343 336 328 321 314 309 305 301 298 296 294 292 291 290 288 286 284 281 279 277 274 270 267 263 261 258 255 254 252 249 249
46 43 38 33 29 26 24 23 22 19 14 10 4 356 348 340 333 326 320 313 307 304 301 299 297 294 291 289 287 284 280 277 273 270 267 262 257 255 254 251 249 249 249
45 42 40 39 37 36 36 36 33 29 24 19 14 9 4 359 354 348 342 335 326 319 314 310 306 302 298 295 293 288 282 278 274 271 268 263 257 254 252 249 247 248 248
45 44 44 44 43 43 43 42 37 33 30 27 25 23 19 15 10 5 359 352 344 336 329 322 316 310 305 301 298 293 287 283 279 274 269 263 257 252 249 248 245 245 245
45 44 45 45 45 46 47 43 40 37 34 33 32 29 26 23 19 15 10 4 356 348 341 334 326 320 316 313 312 308 302 295 289 283 273 265 257 249 244 241 239 239 240
46 45 46 46 46 46 45 43 40 37 37 36 34 32 29 26 22 18 14 10 5 359 354 348 342 338 336 333 330 328 325 320 313 302 287 271 254 242 235 232 232 231 234
47 47 47 46 45 44 43 41 38 35 34 33 31 29 27 24 22 19 16 13 11 10 8 7 8 9 8 5 4 6 4 1 2 3 1 327 216 207 208 210 213 218 226
Height
5868 5869 5869 5869 5869 5869 5870 5871 5871 5871 5871 5870 5870 5870 5871 5871 5871 5871 5870 5870 5871 5871 5872 5872 5873 5873 5873 5873 5873 5873 5872 5872 5871 5871 5871 5870 5868 5867 5866 5865 5863 5862 5862
5858 5860 5861 5862 5862 5862 5863 5863 5863 5863 5863 5863 5862 5863 5864 5864 5864 5864 5863 5862 5863 5864 5865 5866 5867 5867 5867 5867 5867 5867 5867 5866 5866 5865 5864 5863 5863 5861 5860 5859 5857 5856 5856
5849 5850 5851 5853 5854 5854 5855 5855 5856 5856 5856 5855 5854 5855 5855 5856 5856 5856 5855 5855 5856 5857 5858 5859 5860 5860 5861 5861 5862 5862 5861 5860 5859 5859 5858 5857 5856 5854 5854 5852 5851 5850 5850
5841 5842 5842 5844 5845 5845 5846 5847 5848 5848 5848 5847 5846 5846 5846 5846 5847 5848 5849 5849 5848 5849 5850 5851 5853 5854 5855 5855 5856 5856 5855 5854 5853 5852 5851 5850 5849 5848 5847 5846 5845 5844 5844
5832 5833 5834 5835 5835 5836 5837 5838 5839 5840 5840 5840 5840 5838 5834 5835 5837 5839 5841 5842 5842 5842 5843 5844 5846 5847 5848 5849 5849 5849 5849 5848 5846 5845 5844 5844 5843 5841 5841 5840 5839 5839 5838
5823 5824 5825 5826 5826 5827 5828 5829 5830 5832 5833 5833 5832 5830 5826 5824 5826 5829 5831 5833 5834 5836 5837 5838 5839 5840 5841 5842 5842 5842 5842 5841 5840 5839 5838 5837 5836 5834 5834 5833 5832 5832 5832
5814 5815 5816 5816 5816 5817 5818 5820 5821 5823 5824 5825 5825 5823 5820 5818 5818 5820 5822 5823 5825 5827 5828 5830 5832 5833 5835 5835 5836 5835 5835 5834 5833 5832 5831 5829 5828 5827 5827 5826 5825 5825 5826
5804 5805 5806 5807 5807 5807 5809 5811 5813 5814 5815 5816 5816 5815 5814 5811 5811 5811 5812 5814 5815 5817 5819 5821 5823 5826 5828 5828 5828 5828 5827 5827 5826 5825 5824 5822 5821 5820 5819 5819 5819 5819 5820
5796 5797 5798 5798 5799 5799 5801 5802 5804 5806 5807 5808 5807 5806 5805 5804 5803 5804 5805 5806 5807 5809 5811 5814 5817 5819 5821 5821 5821 5820 5819 5819 5818 5817 5817 5815 5814 5813 5813 5813 5813 5814 5814
5791 5792 5792 5792 5792 5793 5794 5795 5796 5798 5799 5800 5799 5798 5798 5796 5796 5797 5798 5800 5802 5804 5807 5809 5811 5813 5814 5814 5813 5812 5811 5810 5810 5809 5809 5808 5808 5807 5807 5807 5807 5807 5808
5787 5787 5787 5787 5787 5787 5788 5788 5789 5790 5792 5792 5792 5791 5792 5792 5792 5793 5794 5796 5798 5801 5803 5805 5806 5807 5807 5807 5806 5805 5804 5803 5802 5802 5802 5802 5801 5801 5801 5801 5802 5802 5803
5784 5785 5785 5784 5784 5783 5783 5784 5784 5785 5786 5787 5787 5788 5788 5789 5790 5791 5792 5794 5796 5798 5799 5800 5801 5801 5801 5800 5800 5798 5798 5797 5796 5796 5796 5796 5795 5795 5796 5796 5797 5797 5798
5784 5784 5784 5783 5782 5782 5781 5781 5782 5783 5784 5785 5786 5786 5786 5787 5788 5789 5790 5791 5793 5794 5795 5796 5796 5796 5795 5794 5793 5792 5792 5791 5791 5790 5790 5790 5790 5790 5790 5791 5792 5792 5793
5784 5784 5784 5783 5783 5783 5782 5782 5782 5783 5783 5784 5785 5785 5785 5786 5786 5787 5788 5789 5790 5791 5791 5791 5790 5790 5789 5788 5787 5786 5786 5785 5784 5784 5784 5783 5784 5784 5785 5786 5786 5787 5788
5785 5785 5785 5785 5784 5784 5783 5783 5783 5783 5783 5784 5784 5785 5785 5785 5786 5786 5786 5787 5787 5786 5786 5785 5785 5784 5783 5783 5782 5780 5779 5778 5777 5777 5777 5777 5777 5778 5779 5780 5781 5782 5783
5787 5787 5787 5786 5786 5786 5785 5785 5784 5784 5784 5784 5784 5784 5785 5784 5784 5784 5784 5783 5782 5781 5781 5780 5779 5778 5777 5777 5776 5774 5773 5772 5771 5771 5771 5771 5771 5771 5773 5774 5775 5776 5777
5789 5789 5789 5788 5788 5787 5787 5787 5786 5786 5785 5785 5784 5784 5783 5782 5782 5781 5780 5779 5778 5776 5775 5774 5773 5772 5771 5770 5769 5768 5767 5765 5764 5764 5764 5764 5764 5765 5766 5767 5768 5770 5771
5793 5792 5792 5791 5790 5789 5789 5788 5787 5786 5785 5784 5783 5782 5781 5780 5779 5777 5776 5774 5772 5771 5769 5767 5766 5765 5764 5763 5762 5761 5760 5759 5758 5757 5757 5757 5757 5758 5759 5760 5762 5763 5765
5796 5796 5795 5794 5793 5792 5790 5789 5788 5786 5785 5783 5782 5780 5778 5777 5775 5773 5771 5769 5767 5765 5763 5761 5759 5758 5757 5756 5755 5754 5753 5752 5751 5750 5750 5750 5751 5752 5752 5753 5755 5757 5758
5799 5798 5797 5796 5795 5793 5791 5790 5788 5786 5784 5782 5779 5777 5775 5773 5771 5769 5767 5764 5762 5759 5757 5755 5753 5751 5750 5749 5748 5747 5746 5745 5744 5744 5744 5744 5744 5745 5746 5747 5748 5750 5752
5802 5801 5799 5798 5796 5794 5792 5790 5788 5786 5783 5781 5778 5776 5773 5771 5768 5765 5763 5760 5757 5755 5752 5750 5747 5745 5743 5742 5741 5739 5738 5737 5736 5736 5736 5737 5737 5738 5739 5740 5742 5744 5746
5805 5803 5802 5800 5798 5796 5794 5792 5789 5787 5784 5781 5778 5775 5772 5769 5766 5763 5760 5757 5754 5751 5748 5745 5743 5740 5738 5736 5734 5732 5731 5729 5729 5728 5728 5729 5730 5731 5733 5735 5737 5739 5741
5808 5806 5804 5802 5800 5798 5796 5794 5791 5789 5786 5783 5780 5776 5773 5770 5767 5763 5760 5756 5753 5749 5746 5742 5739 5735 5732 5730 5727 5725 5724 5722 5721 5720 5720 5720 5721 5723 5726 5728 5731 5734 5737
5811 5809 5807 5805 5803 5801 5799 5797 5794 5791 5788 5785 5782 5779 5775 5772 5768 5764 5760 5756 5752 5748 5744 5739 5735 5731 5728 5725 5723 5720 5718 5716 5714 5712 5711 5711 5712 5715 5718 5722 5726 5729 5733
5813 5811 5809 5808 5806 5804 5802 5800 5797 5794 5791 5788 5785 5782 5778 5774 5770 5766 5762 5757 5752 5747 5742 5737 5732 5728 5725 5722 5720 5717 5714 5712 5709 5706 5704 5704 5705 5707 5711 5716 5720 5725 5728
5815 5814 5812 5810 5809 5807 5805 5803 5800 5797 5794 5791 5788 5784 5781 5777 5773 5769 5764 5759 5753 5747 5742 5736 5730 5726 5723 5721 5719 5717 5713 5710 5707 5704 5701 5701 5701 5703 5707 5712 5717 5721 5725